Regional Weather Roundup
Issued by NWS

Home | Current Version | Previous Version | Graphics & Text | Print | Product List | Glossary On
Versions: 1 2 3 4 5 6 7 8 9 10 11 12 13 14 15 16 17 18 19 20 21 22 23 24 25 26 27 28 29 30 31 32 33 34 35 36 37 38 39 40 41 42 43 44 45 46 47 48 49 50
000
ASUS43 KFSD 180602
RWRSD

WEATHER ROUNDUP FOR SOUTH DAKOTA
NATIONAL WEATHER SERVICE SIOUX FALLS SD
1200 AM CST SAT NOV 18 2017

NOTE: "FAIR" INDICATES FEW OR NO CLOUDS BELOW 12,000 FEET WITH NO
SIGNIFICANT WEATHER AND/OR OBSTRUCTIONS TO VISIBILITY.


SDZ001>005-009-010-012>017-180700-
NORTHWEST AND NORTH CENTRAL SOUTH DAKOTA

CITY           SKY/WX    TMP DP  RH WIND       PRES   REMARKS
BUFFALO          N/A     30  25  81 NW16      29.79R WCI  19
MOBRIDGE       CLOUDY    30  25  81 CALM      29.77R
$$

SDZ012>016-024>037-041>051-057-063-072>074-180700-
SOUTHWEST AND SOUTH CENTRAL SOUTH DAKOTA

CITY           SKY/WX    TMP DP  RH WIND       PRES   REMARKS
RAPID CTY ARPT MOCLDY    37  27  67 NW15      29.86R
PIERRE         CLOUDY    38  36  92 W7        29.79F
CUSTER         CLOUDY    30  19  63 VRB6G18   29.83R WCI  24
ELLSWORTH AFB  MOCLDY    37  28  70 NW16      29.85R
PHILIP         LGT RAIN  36  36 100 W9        29.84R
PINE RIDGE     CLOUDY    35  33  92 CALM      29.85R
SPEARFISH      FAIR      36  23  60 W13G18    29.89R
WINNER         CLOUDY    39  35  86 NW5       29.81R
$$

SDZ004>011-016>023-039-040-180700-
NORTHEAST SOUTH DAKOTA

CITY           SKY/WX    TMP DP  RH WIND       PRES   REMARKS
ABERDEEN       CLOUDY    27  20  75 N5        29.82R WCI  22
WATERTOWN      CLOUDY    30  24  78 N8        29.74R WCI  22
BROOKINGS      CLOUDY    31  27  85 N10       29.73R WCI  22
SISSETON         N/A     27  20  75 N10       29.78R WCI  17
$$

SDZ017-020-022-023-036>040-048>070-180700-
SOUTHEAST SOUTH DAKOTA

CITY           SKY/WX    TMP DP  RH WIND       PRES   REMARKS
SIOUX FALLS    CLOUDY    37  31  78 N9        29.72S
HURON          CLOUDY    33  23  66 N10       29.79R WCI  25
CHAMBERLAIN    CLOUDY    40  32  73 N10       29.80R
MITCHELL       MOCLDY    35  28  75 NW9       29.78R WCI  28
YANKTON        CLOUDY    39  34  82 NW15      29.70F
$$

ABBREVIATIONS USED IN REMARKS
   TC - TEMPERATURE IN CELSIUS
  WCI - WIND CHILL INDEX
   HX - HEAT INDEX
  VSB - VISIBILITY




USA.gov is the U.S. government's official web portal to all federal, state and local government web resources and services.